Location: Erlenbrunn
(49.1717°N, 7.6142°E)
Time: 09:22:46
(UTC+00:00)

Cosmos 1328 Rocket - Pass Details

Date: 25 November 2020
Orbit: 601 x 627 km, 82.5° (Epoch: 26 January)

Event Time Altitude Azimuth Distance (km) Brightness Sun altitude
Rises 17:37:23 0° 180° (S) 2,840 7.1 -19.0°
Reaches altitude 10° 17:39:35 10° 177° (S) 1,944 6.2 -19.3°
Maximum altitude 17:43:50 65° 97° (E) 670 3.4 -20.0°
Enters shadow 17:45:23 37° 29° (NNE) 946 4.2 -20.3°
